FW1784 Weather Reports


time (UTC)temp
F
wind
direction
speed
knots
gust
knots
rain 1hr
in
rain 24hr
in
rain mn
in
humidity
%
barometer
mb
20260904171502 77 88 0.0 2.6 0.00 0.31 0.31 69 1010.7
20260904170103 77 92 0.0 3.5 0.00 0.31 0.31 69 1010.7
20260904164603 78 184 0.0 7.8 0.00 0.31 0.31 59 1010.8
20260904163005 79 65 1.7 8.7 0.00 0.31 0.31 59 1010.9
20260904161612 78 107 0.9 7.8 0.00 0.31 0.31 61 1011.0
20260904154503 78 80 2.6 7.8 0.00 0.31 0.31 63 1011.2
20260904153117 76 71 1.7 4.3 0.00 0.31 0.31 69 1011.4
20260904151603 76 211 0.9 7.8 0.00 0.31 0.31 74 1011.5
20260904150003 76 68 0.0 4.3 0.00 0.31 0.31 77 1011.5
20260904144502 74 182 0.9 7.0 0.00 0.31 0.31 82 1011.8
20260904143121 72 5 0.0 1.7 0.00 0.31 0.31 92 1011.7
20260904141602 72 63 0.0 0.0 0.00 0.31 0.31 95 1011.5
20260904134603 71 67 0.0 0.9 0.00 0.31 0.31 96 1011.4
20260904133113 71 67 0.0 2.6 0.00 0.31 0.31 97 1011.4
20260904131502 71 53 0.0 2.6 0.00 0.31 0.31 98 1011.4
20260904130004 70 113 0.0 2.6 0.00 0.31 0.31 99 1011.5
20260904124503 69 113 0.0 1.7 0.00 0.31 0.31 99 1011.4
20260904123102 69 113 0.0 0.0 0.00 0.31 0.31 99 1011.4
20260904121503 68 113 0.0 0.0 0.00 0.31 0.31 99 1011.3
20260904120109 68 113 0.0 0.0 0.00 0.31 0.31 99 1011.1
20260904114607 67 113 0.0 0.0 0.00 0.31 0.31 99 1011.0
20260904113005 66 113 0.0 0.0 0.00 0.31 0.31 99 1011.0
20260904111604 66 113 0.0 0.0 0.00 0.31 0.31 99 1010.8
20260904104603 66 113 0.0 0.0 0.00 0.31 0.31 98 1010.6
20260904103104 67 113 0.0 0.0 0.00 0.31 0.31 98 1010.4
20260904101607 67 113 0.0 0.0 0.00 0.31 0.31 99 1010.6
20260904100003 67 113 0.0 0.0 0.00 0.31 0.31 99 1010.4
20260904094602 68 113 0.0 0.0 0.00 0.32 0.31 99 1010.3
20260904093001 68 113 0.0 0.0 0.00 0.32 0.31 99 1010.2
20260904091602 68 113 0.0 0.0 0.00 0.32 0.31 98 1010.2
20260904084604 69 113 0.0 0.0 0.00 0.32 0.31 98 1009.8
20260904083002 69 113 0.0 0.0 0.00 0.32 0.31 99 1009.7
20260904081602 69 113 0.0 0.0 0.00 0.32 0.31 98 1009.6
20260904080119 69 113 0.0 0.0 0.00 0.32 0.31 98 1009.5
20260904074603 69 113 0.0 0.0 0.02 0.36 0.31 99 1009.6
20260904073002 69 113 0.0 0.0 0.09 0.36 0.31 99 1009.7
20260904071503 70 113 0.0 0.0 0.21 0.36 0.31 99 1009.8
20260904064502 70 113 0.0 0.0 0.26 0.33 0.28 98 1010.3
20260904063116 70 113 0.0 0.0 0.22 0.27 0.22 98 1010.6
20260904061503 70 113 0.0 0.0 0.10 0.15 0.10 98 1010.9
20260904060104 69 113 0.0 0.0 0.07 0.12 0.07 98 1010.6
20260904054603 69 113 0.0 0.0 0.02 0.10 0.02 98 1010.8
20260904053002 69 113 0.0 0.0 0.00 0.08 0.00 98 1010.7
20260904051602 69 113 0.0 0.0 0.00 0.08 0.00 98 1010.9
20260904050002 69 113 0.0 0.0 0.00 0.08 0.00 98 1010.9
20260904044502 69 113 0.0 0.0 0.00 0.20 0.00 97 1010.9
20260904043106 69 113 0.0 0.0 0.00 0.20 0.00 97 1011.1
20260904041502 69 113 0.0 0.0 0.00 0.20 0.00 97 1010.9
20260904034604 69 113 0.0 0.0 0.00 0.30 0.20 97 1011.2
20260904033103 70 113 0.0 0.0 0.00 0.30 0.20 97 1011.3
20260904031503 70 113 0.0 0.0 0.00 0.30 0.20 97 1011.3
20260904030104 70 113 0.0 0.0 0.00 0.30 0.20 97 1011.6
20260904024604 70 113 0.0 0.0 0.00 0.30 0.20 97 1011.8
20260904023002 70 113 0.0 0.0 0.00 0.30 0.20 96 1012.0
20260904021502 70 113 0.0 0.0 0.00 0.30 0.20 96 1011.8
20260904020003 70 113 0.0 0.0 0.00 0.31 0.20 96 1011.7
20260904014502 71 113 0.0 0.0 0.00 0.31 0.20 96 1012.1
20260904013122 71 113 0.0 0.0 0.00 0.31 0.20 96 1012.1
20260904011502 71 113 0.0 0.0 0.00 0.31 0.20 96 1012.0
20260904004605 71 113 0.0 0.0 0.00 0.31 0.20 96 1011.9
20260904003003 72 113 0.0 0.0 0.00 0.31 0.20 96 1011.8
20260904001603 72 113 0.0 0.0 0.00 0.31 0.20 96 1011.8
20260904000004 73 113 0.0 0.0 0.00 0.32 0.20 95 1011.7
20260903234603 73 113 0.0 0.0 0.00 0.32 0.20 94 1011.7
20260903233008 74 113 0.0 0.0 0.00 0.32 0.20 93 1011.3
20260903231604 75 113 0.0 0.0 0.00 0.32 0.20 92 1011.0
20260903230003 76 113 0.0 0.0 0.00 0.32 0.20 91 1011.2
20260903224502 76 113 0.0 0.0 0.00 0.32 0.20 90 1011.2
20260903223003 77 113 0.0 0.0 0.00 0.32 0.20 91 1011.2
20260903221603 77 113 0.0 0.0 0.00 0.32 0.20 89 1011.3
20260903220003 78 113 0.0 0.0 0.00 0.32 0.20 86 1011.1
20260903214503 79 113 0.0 0.0 0.00 0.32 0.20 86 1011.4
20260903213102 80 113 0.0 1.7 0.00 0.32 0.20 82 1011.3
20260903211605 81 117 0.0 2.6 0.00 0.32 0.20 79 1011.2
20260903210141 83 250 0.9 2.6 0.00 0.32 0.20 74 1011.1
20260903204607 83 225 0.9 2.6 0.00 0.32 0.20 70 1011.1
20260903203002 83 115 0.9 2.6 0.00 0.32 0.20 70 1011.1
20260903201602 83 165 1.7 6.1 0.00 0.32 0.20 71 1011.2
20260903200003 83 233 0.9 2.6 0.00 0.35 0.20 72 1011.4
20260903194503 83 96 0.9 3.5 0.00 0.35 0.20 72 1011.5
20260903193103 83 138 1.7 4.3 0.00 0.35 0.20 68 1011.5
20260903191508 82 76 0.0 4.3 0.00 0.35 0.20 70 1011.9
20260903184502 82 55 2.6 8.7 0.00 0.35 0.20 72 1012.0
20260903183102 83 108 1.7 7.0 0.00 0.35 0.20 70 1012.2
20260903181602 82 219 1.7 4.3 0.00 0.35 0.20 73 1012.2
20260903180002 81 178 0.9 5.2 0.00 0.56 0.20 76 1012.2
20260903174502 80 93 1.7 3.5 0.00 0.56 0.20 75 1012.4
20260903173106 80 225 0.9 4.3 0.00 0.56 0.20 79 1012.4